Showing default

ZHUHAI-1 OHS-02, 43441

Orbit data source: Space-Track

ZHUHAI-1 OHS-02, 43441 is a payload satellite owned by Zhuhai Orbita (CN) in SSO that was launched on Thu, 26 Apr 2018 UTC via a CHANG ZHENG 11 launch vehicle from the Jiuquan Satellite Launch Center, China (JSC). Payload-class satellites include a variety of spacecraft equipped with specific instruments for various scientific and technological missions. These include communications satellites like Starlink; space stations such as the ISS; scientific satellites like the Hubble; Earth observation satellites from companies like Planet Labs, Umbra, and HawkEye 360; GPS; miniature CubeSats for education and research; and military/defense satellites.

Loading next visibility...
Identifier
43441, 2018-040C
Orbit
SSO
Country
Flag of CNCN / PRC
Related business
Manufacturer
Harbin
Mission
Operational Commercial Imaging
Bus & Motor
OHS-1, Unknown motor
Mass
~69 kg wet, ~69 kg dry
Launch date (UTC)
2018-04-26 (8 years ago)
Launch vehicle
CHANG ZHENG 11
Launch site
Jiuquan Satellite Launch Center, China (JSC)
Object type
Payload
Rocket body
Debris
Shape & HBR
Box, 0.5 m
Radar Cross Section
0.280 m², Medium (>0.1 m² and < 1m²)

Expand to show TLE details & history
Last TLE update: 9 hours ago

TLE from 9 hours ago
0 ZHUHAI-1 OHS-02
1 43441U 18040C   25309.99551226  .00013802  00000-0  47840-3 0  9997
2 43441  97.0619 341.9781 0010460 321.4244  38.6249 15.29879052 80259
Epoch: 2025-11-05T23:53Z
TLE epoch observation values (Epoch: 2025-11-05T23:53:32.259Z)
Latitude
-0.00001°
Longitude
-61.86649°
Altitude
473.687 km
Speed
7.632 km/s
True Right ascension
22h 47m 54s
True Declination
0° 00' 00"
Sunlit
Object was in full shadow at epoch
Visualization orbit readout
Latitude
Unknown
Longitude
Unknown
Altitude
Unknown
Speed
Unknown
Apparent Right ascension
Unknown
Apparent Declination
Unknown
Sunlit
N/A
Visualization observer readout
Local Sidereal Time
04:40:19
Azimuth
Unknown
Elevation
Unknown
Doppler factor
Unknown
Orbital elements
Apogee altitude
480.278 km
Perigee altitude
465.945 km
Semi-major axis
6,851.249 km
Eccentricity
0.00105
Inclination
97.0619°
RAAN
341.9781°
Arg. of periapsis
321.4244°
True anomaly
38.6998°
Mean anomaly
38.6249°
Eccentric anomaly
38.66234°
Mean motion
3.82727 °/min
Orbital period
94.06 mins
BSTAR
0.0004784
Loading maneuver chart data...
Computing Atmospheric mass density...
Loading historical data...
Loading historical data...
Loading historical data...
Loading historical data...
Loading historical data...
Loading historical data...
Loading historical data...

Documentation

Showing up to 5 results
|